Tracking 19794 objects as of 23-Jul-2019
HD Live streaming from Space Station
objects crossing your sky now

NOAA 16 DEB

Track NOAA 16 DEB now!
10-day predictions


NORAD ID: 41518
Int'l Code: 2000-055MS
Perigee: 814.5 km
Apogee: 855.5 km
Inclination: 98.9 °
Period: 101.5 minutes
Semi major axis: 7206 km
RCS: Unknown
Launch date: September 21, 2000
Source: United States (US)
Launch site: AIR FORCE WESTERN TEST RANGE (AFWTR)

Note: This is SATELLITE DEBRIS
aabbcc
Your satellite tracking list
Your tracking list is empty




NASA's NSSDC Master Catalog

Two Line Element Set (TLE):
1 41518U 00055MS  19203.67769269  .00000978  00000-0  48606-3 0  9997
2 41518  98.8501 286.9057 0028462 311.5037  48.3697 14.19256965168663
Source of the keplerian elements: AFSPC